Regional Weather Roundup
Issued by NWS

Home | Current Version | Previous Version | Text Only | Print | Product List | Glossary On
Versions: 1 2 3 4 5 6 7 8 9 10 11 12 13 14 15 16 17 18 19 20 21 22 23 24 25 26 27 28 29 30 31 32 33 34 35 36 37 38 39 40 41 42 43 44 45 46 47 48 49 50
000
ASUS43 KLSX 280159
RWRMO

WEATHER SUMMARY FOR MISSOURI
NATIONAL WEATHER SERVICE SPRINGFIELD MO
800 PM CST THU NOV 27 2014

NOTE: "FAIR" INDICATES FEW OR NO CLOUDS BELOW 12,000 FEET WITH NO
       SIGNIFICANT WEATHER AND/OR OBSTRUCTIONS TO VISIBILITY.
       CURRENT SKY AND/OR WEATHER CONDITIONS ARE NOT AVAILABLE FOR
       CHILLICOTHE AND FARMINGTON.

MOZ001>031-035>038-043-044-053-054-280300-
...NORTHERN AND WESTERN MISSOURI...

CITY           SKY/WX    TMP DP  RH WIND       PRES   REMARKS
KANSAS CTY INT MOCLDY    30  22  72 SE10      30.31F WCI  21
KANSAS C DTWN  PTCLDY    34  23  64 E5        30.33F WCI  30
LEE`S SUMMIT   PTCLDY    32  23  69 SE8       30.33F WCI  25
ST JOSEPH      FAIR      28  21  75 SE7       30.33F WCI  21
CHILLICOTHE      N/A     28  19  69 E5        30.39F WCI  23
KIRKSVILLE     MOCLDY    19  12  74 SE7       30.40F WCI  10

$$
MOZ066>068-077>081-088>096-101>105-280300-
...SOUTHWEST MISSOURI...

CITY           SKY/WX    TMP DP  RH WIND       PRES   REMARKS
SPRINGFIELD    PTCLDY    33  22  63 S5        30.37F WCI  29
JOPLIN         PTCLDY    35  22  58 SE7       30.35F WCI  29

$$
MOZ032>034-039>042-045>050-055>058-069>072-280300-
...CENTRAL MISSOURI...

CITY           SKY/WX    TMP DP  RH WIND       PRES   REMARKS
COLUMBIA       MOCLDY    30  24  78 E5        30.40F WCI  25
JEFFERSON CITY MOCLDY    30  24  78 CALM      30.42F
ROLLA          MOCLDY    29  24  82 E5        30.38F WCI  24
SEDALIA        CLOUDY    32  25  75 E7        30.38F WCI  26
OSAGE BEACH    MOCLDY    32  21  64 CALM      30.39S

$$
MOZ051-052-059>065-280300-
...EAST CENTRAL MISSOURI...

CITY           SKY/WX    TMP DP  RH WIND       PRES   REMARKS
ST LOUIS INTL  PTCLDY    26  17  68 E5        30.45F WCI  20
SPIRIT OF STL  CLEAR     26  20  77 CALM      30.45F
ST CHARLES     CLEAR     24  17  74 NE6       30.46F WCI  17

$$
MOZ072>076-082>087-097>100-106>115-280300-
...SOUTH CENTRAL AND SOUTHEAST MISSOURI...

CITY           SKY/WX    TMP DP  RH WIND       PRES   REMARKS
CAPE GIRARDEAU CLEAR     30  26  85 SE5       30.48S WCI  25
FARMINGTON     CLEAR     28  23  80 CALM      30.44F
POPLAR BLUFF   CLEAR     30  24  78 CALM      30.46S
WEST PLAINS    CLEAR     28  20  71 CALM      30.41S

$$


USA.gov is the U.S. government's official web portal to all federal, state and local government web resources and services.